Home > Time Zones > World Clock > Weather > U.S.A. > Gary > Past weeks

Flag for U.S.A. Weather past 2 weeks in Gary, Indiana, U.S.A.

Now
65 °F

Sunny.


Feels Like: 65 °F
Forecast: 55 / 67 °F
Wind: 10 mph from Northeast

Location: Lansing Municipal Airport

Current Time: Jul 2, 2015 at 1:36:57 PM

Latest Report: Jul 2, 2015 at 10:40 AM


Visibility: 10 mi

Pressure: 30.00 "Hg

Humidity: 67%

Dew point: 54 °F

Location of GaryLocation

Historic Weather in Gary — Graph

°F

Gary temperature yesterday

Maximum temperature yesterday: 65 °F (at 11:55 AM)
Minimum temperature yesterday: 56 °F (at 10:55 PM)
Average temperature yesterday: 60 °F

Past Weeks' High & Low Weather Summary

 TemperatureHumidityPressure
High85 °F (Jun 21, 3:35 PM)94% (Jun 18, 3:15 AM)30.18 "Hg (Jun 18, 3:15 AM)
Low52 °F (Jun 28, 5:35 AM)34% (Jun 27, 3:55 PM)29.74 "Hg (Jun 20, 2:35 PM)
Average68 °F74%29.95 "Hg
* Reported Jun 17 10:15 AM — Jul 2 10:40 AM, Gary, Weather by CustomWeather, © 2015

Note: Actual official high and low records may vary slightly from our data, if they occured in-between our weather recording intervals... More about our weather records

Advertising

Gary weather history for previous 24 hours

 ConditionsComfort  
Time TempWeatherWind HumidityBarometerVisibility
10:40 AM
Thu, Jul 2
65 °FSunny.10 mph67%30.00 "Hg10 mi
10:55 PM
Wed, Jul 1
56 °FPassing clouds.7 mph80%29.99 "Hg10 mi
10:35 PM56 °FPassing clouds.3 mph79%30.00 "Hg10 mi
10:15 PM57 °FPassing clouds.7 mph78%30.00 "Hg10 mi
9:55 PM58 °FPassing clouds.8 mph76%30.00 "Hg10 mi
9:35 PM58 °FPassing clouds.3 mph77%30.00 "Hg10 mi
9:15 PM58 °FClear.7 mph76%30.00 "Hg10 mi
8:55 PM57 °FClear.6 mph76%29.98 "Hg10 mi
8:35 PM58 °FClear.9 mph75%29.99 "Hg10 mi
8:15 PM58 °FSunny.7 mph76%29.99 "Hg10 mi
7:55 PM58 °FSunny.7 mph75%29.99 "Hg10 mi
7:15 PM59 °FSunny.12 mph70%29.98 "Hg10 mi
6:55 PM60 °FSunny.9 mph69%29.98 "Hg10 mi
6:35 PM61 °FSunny.9 mph66%29.98 "Hg10 mi
6:15 PM61 °FSunny.9 mph66%29.97 "Hg10 mi
5:55 PM61 °FSunny.8 mph66%29.97 "Hg10 mi
5:15 PM62 °FSunny.10 mph64%29.96 "Hg10 mi
4:55 PM63 °FSunny.10 mph64%29.96 "Hg10 mi
4:15 PM63 °FPartly sunny.10 mph63%29.97 "Hg10 mi
3:55 PM63 °FScattered clouds.9 mph64%29.97 "Hg10 mi
3:15 PM64 °FSunny.8 mph64%29.97 "Hg10 mi
2:55 PM63 °FScattered clouds.9 mph66%29.97 "Hg10 mi
2:35 PM62 °FScattered clouds.10 mph66%29.97 "Hg10 mi
2:15 PM63 °FPartly sunny.9 mph65%29.96 "Hg10 mi
1:55 PM63 °FOvercast.8 mph67%29.97 "Hg10 mi
1:15 PM64 °FOvercast.8 mph64%29.98 "Hg10 mi
Weather by CustomWeather, © 2015

See weather overviewHow to use our weather pages